Total_Precipitation_Accumulation
1.87 2.02 2.02 2.22 2.20 2.27 2.47 2.81 2.87 3.07 3.13 3.10 2.78 2.42 2.27 2.12 1.95 2.09 2.20 2.11 2.02 2.24 2.72 3.13 3.03 2.80 2.54 2.52 2.37 1.96 1.68 1.57 1.39 1.09 1.00 1.08 1.07 0.98 0.87 0.83 0.77 0.71 0.59
2.43 2.65 2.68 2.71 2.49 2.46 2.72 2.97 3.10 3.62 3.58 3.44 2.97 2.68 2.41 2.30 2.11 2.03 2.23 2.37 2.06 2.03 2.36 3.02 3.33 3.12 2.89 2.87 2.66 2.18 1.84 1.67 1.53 1.16 0.94 0.96 1.02 1.01 0.95 0.90 0.80 0.68 0.55
2.82 2.99 2.95 2.85 2.79 2.77 2.97 3.16 3.34 3.52 3.36 3.24 3.08 2.87 2.63 2.38 2.08 2.05 2.10 2.31 2.19 2.04 2.23 2.59 3.01 3.11 3.14 3.15 2.90 2.47 1.99 1.70 1.48 1.21 0.94 0.88 0.90 0.93 0.92 0.93 0.86 0.67 0.49
2.97 3.28 3.10 2.93 3.21 3.06 3.23 3.63 3.65 3.68 3.65 3.44 3.25 3.00 2.76 2.52 2.05 1.92 1.90 2.19 2.53 2.18 2.27 2.54 2.68 2.77 3.20 3.37 3.21 2.96 2.51 2.01 1.57 1.30 1.07 1.02 1.02 0.99 0.95 0.87 0.85 0.68 0.47
2.86 3.16 3.06 3.10 3.16 3.43 3.47 3.24 3.74 3.83 3.75 3.56 3.02 2.83 2.47 2.26 2.06 1.84 1.93 2.00 2.35 2.23 2.24 2.31 2.47 2.62 3.16 3.65 3.73 3.59 3.26 2.76 2.15 1.79 1.70 1.60 1.54 1.36 1.15 0.97 0.83 0.70 0.51
2.74 3.14 2.97 2.95 3.04 3.38 3.37 3.36 3.70 3.70 3.46 3.47 2.83 2.54 2.33 1.95 1.93 1.96 1.78 1.90 2.05 1.78 1.92 2.19 2.63 2.32 2.48 2.78 3.27 3.62 3.69 3.58 3.12 2.95 2.96 2.68 2.44 2.00 1.47 1.16 0.93 0.79 0.64
2.62 3.03 2.78 3.05 2.99 3.09 3.13 3.16 3.41 3.51 3.20 3.26 3.25 2.78 2.16 1.75 1.71 1.70 1.72 1.80 1.77 1.83 2.21 2.55 2.72 2.67 2.40 2.11 2.21 2.73 3.46 3.87 3.58 3.28 3.37 3.41 3.31 2.71 1.92 1.47 1.14 0.91 0.77
2.46 2.63 2.83 2.70 2.73 2.90 2.93 2.97 3.23 3.19 2.81 2.90 3.17 3.20 2.57 2.22 1.77 1.34 1.65 1.74 1.73 1.98 2.10 2.17 2.49 2.75 2.65 2.73 2.15 1.95 2.62 3.36 3.62 3.44 3.28 3.44 3.46 2.86 2.18 1.87 1.49 1.14 0.97
2.31 2.39 2.55 2.55 2.55 2.45 2.67 2.87 2.80 2.81 2.68 2.60 2.75 3.15 2.89 2.46 2.02 1.53 1.39 1.47 1.71 1.92 1.94 2.06 2.06 2.25 2.33 2.71 2.68 2.19 2.00 2.26 2.95 3.60 3.63 3.47 3.30 2.80 2.36 2.16 1.92 1.53 1.29
2.10 2.12 2.17 2.17 2.22 2.23 2.50 2.30 2.30 2.55 2.68 2.53 2.55 2.56 2.62 2.69 2.54 1.94 1.48 1.40 1.61 1.76 1.76 1.68 1.80 2.02 2.05 2.25 2.42 2.19 1.89 1.75 2.08 2.83 3.39 3.47 3.21 2.70 2.41 2.39 2.51 2.28 1.78
1.98 1.87 1.99 2.02 2.02 2.02 2.11 2.14 2.40 2.38 2.45 2.43 2.42 2.43 2.56 2.60 2.45 2.25 1.88 1.71 1.65 1.47 1.49 1.56 1.66 1.85 1.99 2.10 2.31 2.14 2.11 1.80 1.79 1.97 2.43 2.85 2.98 2.87 2.57 2.57 2.93 3.06 2.71
1.80 1.78 1.85 1.95 1.92 1.90 2.03 2.09 2.14 2.15 2.21 2.27 2.23 2.23 2.43 2.34 2.27 2.36 2.05 1.88 1.81 1.52 1.50 1.53 1.54 1.68 1.77 1.85 1.74 1.86 1.84 1.62 1.53 1.49 1.53 1.85 2.22 2.44 2.52 2.67 3.03 3.31 3.31
1.57 1.56 1.67 1.78 1.75 1.74 1.85 1.95 1.96 2.06 2.12 2.13 2.07 2.10 2.17 2.11 2.13 2.27 2.32 2.11 1.94 1.64 1.62 1.54 1.46 1.61 1.57 1.79 1.75 1.58 1.36 1.27 1.15 1.09 1.12 1.25 1.44 1.68 1.90 2.19 2.62 2.98 3.18
1.41 1.49 1.57 1.57 1.58 1.61 1.63 1.91 1.95 2.01 2.07 2.02 1.90 2.19 2.10 1.88 1.97 2.14 2.34 2.54 2.38 2.00 1.94 1.76 1.53 1.47 1.56 1.65 1.59 1.39 1.11 1.05 0.96 0.92 0.88 0.92 1.05 1.17 1.32 1.49 1.79 2.05 2.30
1.62 1.64 1.62 1.64 1.66 1.73 1.84 2.06 2.10 2.08 2.11 2.06 2.11 2.25 2.09 1.89 1.89 1.95 2.28 2.58 2.75 2.43 2.13 1.92 1.74 1.47 1.50 1.42 1.41 1.28 1.24 1.10 0.91 0.87 0.84 0.77 0.80 0.89 0.99 1.10 1.21 1.37 1.49
1.83 1.81 1.82 1.80 1.72 1.79 1.96 2.11 2.12 2.09 2.14 2.16 2.21 2.34 2.32 2.15 2.13 2.11 2.30 2.53 2.72 2.75 2.33 1.98 1.92 1.64 1.52 1.28 1.35 1.22 1.15 1.16 0.95 0.83 0.81 0.73 0.70 0.72 0.75 0.83 0.91 0.99 1.10
1.74 1.68 1.64 1.64 1.64 1.69 1.76 1.82 1.78 1.80 1.81 1.92 1.91 2.06 2.17 2.28 2.26 2.25 2.36 2.46 2.65 2.83 2.45 2.21 2.27 2.12 1.89 1.65 1.48 1.34 1.17 1.11 0.98 0.89 0.76 0.73 0.73 0.74 0.77 0.80 0.83 0.88 0.94
1.43 1.35 1.39 1.42 1.41 1.39 1.45 1.44 1.40 1.49 1.62 1.76 1.88 2.00 1.89 1.95 2.01 2.07 2.21 2.37 2.56 2.79 2.65 2.56 2.66 2.60 2.36 2.01 1.84 1.66 1.31 1.12 1.04 1.01 0.86 0.75 0.75 0.77 0.77 0.82 0.85 0.85 0.86
1.13 1.13 1.20 1.24 1.23 1.23 1.21 1.21 1.29 1.37 1.49 1.59 1.70 1.73 1.65 1.69 1.73 1.88 1.95 2.12 2.34 2.59 2.66 2.63 2.75 2.75 2.56 2.35 2.24 1.87 1.59 1.52 1.21 1.16 1.05 0.88 0.78 0.76 0.79 0.79 0.82 0.87 0.87
1.06 1.10 1.19 1.24 1.22 1.25 1.30 1.41 1.49 1.51 1.55 1.53 1.50 1.46 1.40 1.46 1.57 1.74 1.80 1.88 2.03 2.25 2.39 2.49 2.69 2.74 2.65 2.56 2.50 2.13 1.90 1.79 1.55 1.29 1.23 1.02 0.91 0.83 0.81 0.79 0.81 0.87 0.95
1.10 1.13 1.24 1.33 1.37 1.33 1.24 1.40 1.54 1.50 1.53 1.51 1.40 1.24 1.13 1.19 1.27 1.41 1.37 1.59 1.80 2.00 2.11 2.26 2.48 2.70 2.57 2.54 2.39 2.24 2.05 1.98 1.85 1.59 1.52 1.24 1.07 0.93 0.79 0.75 0.77 0.84 0.99
1.15 1.13 1.13 1.23 1.20 0.99 1.07 1.22 1.33 1.37 1.45 1.47 1.33 1.19 1.06 1.03 1.08 1.16 1.18 1.26 1.44 1.65 1.83 2.11 2.31 2.49 2.37 2.30 2.38 2.38 2.30 2.10 2.00 1.85 1.94 1.80 1.55 1.40 1.13 0.87 0.83 0.86 0.98
1.15 1.18 1.17 1.16 1.12 1.07 1.13 1.12 1.11 1.21 1.32 1.31 1.34 1.32 1.09 0.90 1.02 1.02 1.09 1.08 1.15 1.27 1.44 1.74 1.94 2.05 2.19 2.18 2.40 2.49 2.59 2.47 2.31 2.19 2.36 2.36 2.19 2.01 1.41 1.19 1.13 0.96 0.93
1.18 1.21 1.20 1.17 1.23 1.23 1.21 1.07 1.07 1.07 1.19 1.26 1.25 1.20 1.19 1.14 1.06 1.04 1.09 1.12 1.02 1.02 1.11 1.15 1.33 1.63 2.13 2.40 2.42 2.47 2.69 2.67 2.47 2.37 2.48 2.59 2.38 2.29 1.82 1.39 1.16 0.90 0.81
1.20 1.19 1.19 1.13 1.15 1.24 1.23 1.09 1.03 1.00 1.14 1.21 1.21 1.17 1.13 1.14 1.12 1.00 1.05 1.08 1.02 0.97 0.98 1.09 1.20 1.41 1.66 1.98 2.17 2.24 2.34 2.49 2.56 2.51 2.51 2.64 2.56 2.45 2.43 2.11 1.53 1.16 0.89
1.33 1.29 1.24 1.18 1.16 1.20 1.16 0.96 0.91 0.89 1.01 1.10 1.19 1.13 1.00 0.92 0.95 0.91 0.99 1.08 1.00 0.98 1.03 1.05 1.06 1.13 1.28 1.45 1.54 1.54 1.66 1.83 2.01 2.17 2.12 2.33 2.59 2.67 2.87 2.82 2.30 1.70 1.30